Regional Weather Roundup
Issued by NWS

Home | Current Version | Previous Version | Text Only | Print | Product List | Glossary On
Versions: 1 2 3 4 5 6 7 8 9 10 11 12 13 14 15 16 17 18 19 20 21 22 23 24 25 26 27 28 29 30 31 32 33 34 35 36 37 38 39 40 41 42 43 44 45 46 47 48 49 50
000
ASUS43 KMPX 191710
RWRMN
WEATHER ROUNDUP FOR MINNESOTA
NATIONAL WEATHER SERVICE TWIN CITIES/CHANHASSEN MN
1100 AM CST FRI DEC 19 2014


NOTE: "FAIR" INDICATES FEW OR NO CLOUDS BELOW 12,000 FEET WITH NO
SIGNIFICANT WEATHER AND/OR OBSTRUCTIONS TO VISIBILITY. N/A MEANS
CURRENT SKY AND/OR WEATHER CONDITIONS ARE NOT AVAILABLE.

MNZ060>063-068>070-191800-
   Twin Cities Metro

CITY           SKY/WX    TMP DP  RH WIND       PRES   REMARKS
TWIN CITIES    CLOUDY    25  20  81 SE7       30.24F WCI  17
ST PAUL        CLOUDY    25  20  81 SE8       30.26F WCI  16
CRYSTAL        CLOUDY    26  21  81 SE8       30.22F HAZE    WCI  18
BLAINE         CLOUDY    27  21  80 SE8       30.23F WCI  18
LAKEVILLE      PTSUNNY   25  21  86 SE7       30.23F FOG     WCI  17
EDEN PRAIRIE   CLOUDY    26  21  81 SE7       30.22F HAZE    WCI  18
SOUTH ST PAUL  PTSUNNY   26  21  81 SE6       30.25F WCI  19
LAKE ELMO      CLOUDY    27  21  80 S6        30.25F WCI  20
$$
MNZ001>005-007-008-013>017-022>024-027-028-191800-
   Northwest Minnesota

CITY           SKY/WX    TMP DP  RH WIND       PRES   REMARKS
BEMIDJI        CLOUDY    21  19  94 SE9       30.12S FOG     WCI  10
HALLOCK        CLOUDY    25  25 100 S14       30.07S FOG     WCI  13
ROSEAU         CLOUDY    25  19  80 S13       30.09F HAZE    WCI  13
WARROAD        CLOUDY    23  19  86 SE9       30.10F WCI  13
THIEF RVR FALL CLOUDY    25  23  93 S12       30.08F WCI  14
CROOKSTON      CLOUDY    27  25  93 S13       30.09F FOG     WCI  16
FOSSTON        CLOUDY    21  21 100 SE7       30.09F FOG     WCI  13
DETROIT LAKES  CLOUDY    27  25  93 S13       30.09F FOG     WCI  16
MOORHEAD       CLOUDY    28  28 100 S15       30.08F FOG     WCI  17
PARK RAPIDS    CLOUDY    22  20  92 SE12      30.11F FOG     WCI  10
MAHNOMEN       CLOUDY    23  22  95 SE8       30.09S FOG     WCI  14
$$
MNZ006-009>011-018-025>026-191800-
   North Central Minnesota

CITY           SKY/WX    TMP DP  RH WIND       PRES   REMARKS
BAUDETTE       CLOUDY    22  17  81 S7        30.11F WCI  13
FLAG ISLAND    CLOUDY    21  18  86 S16       30.11S WCI   7
INTL FALLS     LGT SNOW  22  17  81 SE6       30.16S WCI  14
WASKISH        CLOUDY    23  19  86 SE5       30.13S WCI  17
BIG FORK       LGT SNOW  21  18  86 SE6       30.15F WCI  14
LONGVILLE      CLOUDY    21  19  93 SE10      30.15F FOG     WCI  10
GRAND RAPIDS   CLOUDY    21  16  79 S14       30.16F WCI   8
CRANE LAKE     CLOUDY    21  18  86 S5        30.21F WCI  15
ORR            CLOUDY    21  16  79 SE8       30.15F WCI  12
COOK           CLOUDY    21  18  86 SE7       30.18F WCI  13
WALKER         CLOUDY    20  18  93 SE3       30.13F FOG
$$
MNZ012-019>021-037-191800-
   Northeast Minnesota

CITY           SKY/WX    TMP DP  RH WIND       PRES   REMARKS
DULUTH         LGT SNOW  22  19  89 S8        30.20F FOG     WCI  12
ELY            CLOUDY    19  19 100 S5        30.19F WCI  13
HIBBING        CLOUDY    23  17  78 S6        30.18F WCI  16
EVELETH        LGT SNOW  23  21  93 SE6       30.20F WCI  16
DULUTH HARBOR  CLOUDY    25  21  86 CALM      30.27F
TWO HARBORS    CLOUDY    25  19  80 S2        30.21F
SILVER BAY     CLOUDY    25  21  86 CALM      30.21F
GRAND MARAIS     N/A     30  23  75 S12       30.26F WCI  20
G MARAIS ARPRT CLOUDY    21  18  86 S6        30.19F WCI  14
$$
MNZ029>031-032-039>041-046>048-054>057-064-191800-
   West Central Minnesota

CITY           SKY/WX    TMP DP  RH WIND       PRES   REMARKS
FERGUS FALLS   CLOUDY    27  25  93 S14       30.13F FOG     WCI  15
WHEATON        CLOUDY    27  25  93 S8        30.12F FOG     WCI  18
MORRIS         SUNNY     28  27  93 S14       30.11F FOG     WCI  17
ALEXANDRIA     FOG       25  24  96 S12       30.12F VSB 1   WCI  14
ELBOW LAKE     CLOUDY    26  26  98 S14       30.11S FOG     WCI  14
WADENA         FOG       21  21 100 NW6       30.12F VSB 3/4 WCI  14
GLENWOOD       CLOUDY    27  27 100 SE8       30.13F FOG     WCI  18
APPLETON       CLOUDY    30  28  93 S6        30.13F WCI  24
BENSON         CLOUDY    28  27  93 S9        30.14F FOG     WCI  20
ORTONVILLE     CLOUDY    28  25  86 S14       30.10F FOG     WCI  17
MADISON        MOSUNNY   34  30  86 S6        30.13F WCI  29
WILLMAR        CLOUDY    28  27  93 S10       30.17F FOG     WCI  19
$$
MNZ033>034-036-042>043-049>051-058-059-191800-
   Central Minnesota

CITY           SKY/WX    TMP DP  RH WIND       PRES   REMARKS
ST CLOUD       CLOUDY    24  20  84 SE8       30.20F FOG     WCI  15
SAUK CENTRE    FOG       24  24  98 SE10      30.15F VSB 1/2 WCI  14
PAYNESVILLE    CLOUDY    23  23 100 E7        30.17F FOG     WCI  15
AITKIN         CLOUDY    25  19  80 S8        30.17F WCI  16
PINE RIVER     CLOUDY    21  19  93 SE8       30.18F FOG     WCI  12
BRAINERD       CLOUDY    21  19  92 SE7       30.17F FOG     WCI  12
STAPLES        CLOUDY    19  19 100 SE8       30.14F FOG     WCI   9
LONG PRAIRIE   FOG       23  23 100 SE9       30.15F VSB 3/4 WCI  13
LITTLE FALLS   CLOUDY    23  21  93 SE8       30.18F FOG     WCI  14
LITCHFIELD     CLOUDY    27  27 100 SE5       30.19F FOG     WCI  21
BUFFALO        CLOUDY    25  22  89 SE6       30.22F FOG     WCI  18
MAPLE LAKE     CLOUDY    26  25  94 SE6       30.21F FOG     WCI  19
$$
MNZ037-044-045-052-053-191800-
   East Central Minnesota

CITY           SKY/WX    TMP DP  RH WIND       PRES   REMARKS
PRINCETON      CLOUDY    25  21  86 CALM      30.21F FOG
MORA           PTSUNNY   23  19  86 SE5       30.24S WCI  17
CAMBRIDGE      CLOUDY    27  18  69 SE6       30.21F WCI  20
RUSH CITY      CLOUDY    24  20  84 SE6       30.24F WCI  17
MOOSE LAKE     CLOUDY    25  19  80 S5        30.20F WCI  19
HINCKLEY       CLOUDY    25  21  86 CALM      30.23F
CLOQUET        CLOUDY    23  19  86 S5        30.20F WCI  17
MCGREGOR       CLOUDY    23  19  86 SE8       30.20F WCI  14
$$
MNZ071>073-080-081-089-090-097-098-191800-
   Southwest Minnesota

CITY           SKY/WX    TMP DP  RH WIND       PRES   REMARKS
MONTEVIDEO     CLOUDY    30  30 100 SW8       30.16S FOG     WCI  23
GRANITE FALLS  CLOUDY    30  27  88 S13       30.17F WCI  20
CANBY          CLOUDY    30  28  92 S8        30.14S FOG     WCI  23
MARSHALL       CLOUDY    28  25  86 S13       30.15F WCI  18
REDWOOD FALLS  CLOUDY    31  28  89 S10       30.17F FOG     WCI  22
OLIVIA         CLOUDY    30  28  93 S10       30.16F FOG     WCI  21
PIPESTONE      CLOUDY    28  27  93 SW6       30.11F FOG     WCI  22
WINDOM         CLOUDY    30  28  93 S8        30.16F FOG     WCI  23
WORTHINGTON    CLOUDY    30  27  86 S13       30.16S WCI  20
JACKSON        CLOUDY    32  30  93 S10       30.18S FOG     WCI  24
TRACY          CLOUDY    31  28  90 SW10      30.15F FOG     WCI  22
SLAYTON        CLOUDY    28  28  99 S6        30.14F FOG     WCI  22
$$
MNZ065>067-074>077-082>085-091>093-191800-
   South Central Minnesota

CITY           SKY/WX    TMP DP  RH WIND       PRES   REMARKS
MANKATO        CLOUDY    28  23  80 S8        30.21F WCI  20
NEW ULM        CLOUDY    28  28 100 S9        30.19F FOG     WCI  20
ST JAMES       CLOUDY    30  28  93 S9        30.21S FOG     WCI  22
FAIRMONT       CLOUDY    28  25  86 S12       30.20S WCI  18
GLENCOE        CLOUDY    29  27  93 SE6       30.20F FOG     WCI  23
FARIBAULT      PTSUNNY   28  25  86 SE7       30.22F FOG     WCI  21
OWATONNA       SUNNY     27  23  86 SE9       30.22S FOG     WCI  17
WASECA         CLOUDY    28  27  93 S7        30.23F FOG     WCI  21
ALBERT LEA     PTSUNNY   28  27  93 S7        30.22S FOG     WCI  21
$$
MNZ078>079-086>088-094>096-191800-
   Southeast Minnesota

CITY           SKY/WX    TMP DP  RH WIND       PRES   REMARKS
ROCHESTER      CLOUDY    26  20  77 S8        30.24S WCI  18
RED WING       CLOUDY    27  19  74 SE6       30.26F WCI  20
STANTON        CLOUDY    28  23  79 SE6       30.23S WCI  22
DODGE CENTER   CLOUDY    27  25  93 SE9       30.22F WCI  17
WINONA         CLOUDY    30  23  74 E7        30.29F WCI  23
AUSTIN         CLOUDY    27  21  80 S7        30.24S WCI  19
PRESTON        CLOUDY    26  20  79 S7        30.25F WCI  18
$$
ABBREVIATIONS USED IN REMARKS
   TC - TEMPERATURES IN CELSIUS
  WCI - WIND CHILL INDEX
   HX - HEAT INDEX
  VSB - VISIBILITY
$$


USA.gov is the U.S. government's official web portal to all federal, state and local government web resources and services.